Location: Grasslands National Park East Block
(49.0708°N, 106.5295°W)
Time: 12:42:29
(UTC-06:00)

Vanguard 1 Rocket - Pass Details

Date: 29 September 2019
Orbit: 650 x 4226 km, 34.3° (Epoch: 19 October)

Event Time Altitude Azimuth Distance (km) Brightness Sun altitude
Rises 17:12:44 0° 239° (WSW) 8,345 14.1 14.6°
Reaches altitude 10° 17:18:45 10° 235° (SW) 7,416 14.0 13.7°
Maximum altitude 17:42:34 49° 171° (S) 4,306 11.0 10.0°
Drops below altitude 10° 17:58:43 10° 103° (ESE) 5,246 10.8 7.4°
Sets 18:02:05 0° 98° (E) 5,862 10.9 6.8°
